{"data":{"norad_id":51862,"epoch":"2026-05-24T23:12:39.655296Z","epoch_age_seconds":71909,"freshness":"FRESH","line1":"1 51862U 22022L   26144.96712564 -.00003216  00000+0 -18395-3 0  9999","line2":"2 51862  53.2126  26.6962 0001371  97.3760 262.7388 15.08854089234685","mean_motion":15.08854089,"eccentricity":0.0001371,"inclination_deg":53.2126,"raan_deg":26.6962,"arg_perigee_deg":97.376,"mean_anomaly_deg":262.7388,"bstar":-0.00018395,"rev_number":23468,"period_min":95.436663524859,"perigee_km":538.75188936535,"apogee_km":540.64876035983,"semimajor_km":6917.8373248626,"source":"CELESTRAK","updated_at":"2026-05-25T13:38:16.961379Z"}}